{"data":{"norad_id":66134,"epoch":"2026-09-20T13:56:13.096032Z","epoch_age_seconds":93453,"freshness":"FRESH","line1":"1 66134U 25237W   26263.58070713  .00025241  00000+0  75573-3 0  9992","line2":"2 66134  53.1594 211.2237 0001988  84.5275 275.5955 15.34396702 52492","mean_motion":15.34396702,"eccentricity":0.0001988,"inclination_deg":53.1594,"raan_deg":211.2237,"arg_perigee_deg":84.5275,"mean_anomaly_deg":275.5955,"bstar":0.00075573,"rev_number":5249,"period_min":93.847959795732,"perigee_km":461.35308158722,"apogee_km":464.07300356415,"semimajor_km":6840.8500425757,"source":"CELESTRAK","updated_at":"2026-09-21T09:00:35.810424Z"}}